[[{"header":{"parameterUnit":"m.s-1","parameterCategory":1,"la1":30.2991,"la2":30.254,"lo1":-89.0895,"lo2":-89.0444,"dy":0.0017,"dx":0.0017,"nx":28,"ny":28,"refTime":"2025-01-14T09:00:00:Z","depth":0,"parameterNumber":2,"parameterNumberName":"U-component_of_WINDS"},"data":[0,0,0,0,0,0,0,0,0,0,0,0,0,0,0,0,0,0,0,0,0,0,0,0,0,0,0,0,0,0,0,0,0,0,0,0,0,0,0,0,0,0,0,0,0,0,0,0,0,0,0,0,0,0,0,0,0,0,-3.0505,-3.0505,0,-3.0487,-3.0487,-3.0487,-3.0419,-3.0417,-3.0415,-3.0414,-3.0398,-3.0399,-3.04,0,0,0,0,0,0,0,0,0,0,0,0,0,-3.0482,-3.0483,-3.0505,-3.0505,-3.0504,-3.0487,-3.0487,-3.0486,-3.0419,-3.0417,-3.0415,-3.0413,-3.0398,-3.0399,-3.04,0,0,0,0,0,0,0,0,0,0,0,0,0,-3.0481,-3.0483,-3.0505,-3.0468,-3.0465,-3.0487,-3.0487,-3.0486,-3.0419,-3.0417,-3.0415,-3.0412,-3.0397,-3.0399,-3.04,-3.0457,0,0,-3.0405,-3.0406,0,0,0,0,0,0,0,0,-3.0481,-3.0482,-3.0474,-3.0471,-3.0467,-3.0452,-3.0473,-3.0477,-3.042,-3.0437,-3.0414,-3.0411,-3.0418,-3.0418,-3.042,-3.0456,-3.0455,-3.0405,-3.0406,-3.0407,-3.0407,0,0,0,0,0,0,0,-3.0481,-3.0482,-3.0498,-3.0474,-3.047,-3.0453,-3.0451,-3.0473,-3.0441,-3.0435,-3.043,-3.0429,-3.0416,-3.0418,-3.0419,-3.0455,-3.0405,-3.0406,-3.0407,-3.0408,-3.0537,-3.054,0,0,0,0,0,0,-3.0486,-3.0483,-3.0498,-3.0497,-3.0468,-3.0456,-3.0453,-3.046,-3.044,-3.0435,-3.0431,-3.0426,-3.0417,-3.0417,-3.0418,-3.0483,-3.0407,-3.0408,-3.0409,-3.0535,-3.0538,-3.054,0,0,0,0,0,0,-3.0486,-3.0488,-3.0499,-3.0488,-3.0489,-3.0459,-3.0467,-3.0461,-3.0463,-3.0437,-3.0431,-3.0439,-3.0415,-3.0416,-3.0447,-3.0482,-3.0409,-3.041,-3.0532,-3.0536,-3.0539,-3.0615,0,0,0,0,0,0,-3.0485,-3.0488,-3.0509,-3.0489,-3.0489,-3.0529,-3.0469,-3.0462,-3.0466,-3.0459,-3.0443,-3.0439,-3.0413,-3.0446,-3.0449,-3.0483,-3.0411,-3.0528,-3.0533,-3.0538,-3.0609,-3.0621,-3.0631,0,0,0,0,0,-3.0485,-3.0532,-3.0511,-3.0513,-3.0515,-3.0531,-3.0531,-3.05,-3.0469,-3.049,-3.0473,-3.0439,-3.0477,-3.0449,-3.0453,-3.0487,-3.0526,-3.0532,-3.0537,-3.0604,-3.0618,-3.063,0,0,0,0,0,0,-3.0557,-3.0528,-3.0505,-3.0546,-3.0541,-3.0519,-3.0545,-3.0516,-3.052,-3.0514,-3.0475,-3.0473,-3.051,-3.0502,-3.0471,-3.0541,-3.0496,-3.0503,-3.0546,-3.0559,-3.057,-3.0572,-3.0413,0,0,0,0,0,-3.0578,-3.0592,-3.0567,-3.0606,-3.0605,-3.0575,-3.0581,-3.0558,-3.0551,-3.0549,-3.0535,-3.053,-3.0541,-3.0549,-3.0558,-3.0607,-3.0603,-3.0633,-3.0643,-3.0652,-3.0659,-3.0685,-3.0698,-3.0559,-3.0559,-3.0559,0,0,-3.0621,-3.0607,-3.0619,-3.062,-3.0613,-3.063,-3.0574,-3.0594,-3.0607,-3.0552,-3.0581,-3.0571,-3.0563,-3.0604,-3.0622,-3.0598,-3.0696,-3.0659,-3.0667,-3.0668,-3.0692,-3.0705,-3.0717,-3.0563,-3.0562,-3.0561,0,0,-3.0708,-3.0699,-3.0731,-3.0725,-3.0715,-3.0695,-3.0703,-3.0685,-3.0676,-3.0704,-3.0664,-3.0678,-3.0698,-3.0694,-3.0695,-3.0781,-3.075,-3.0785,-3.0841,-3.0867,-3.0878,-3.0888,-3.092,-3.0931,-3.0791,-3.0791,-3.0791,0,-3.0764,-3.0787,-3.0751,-3.0774,-3.0776,-3.0726,-3.0759,-3.0755,-3.075,-3.0753,-3.0726,-3.075,-3.0741,-3.0781,-3.0802,-3.0804,-3.0812,-3.0787,-3.0879,-3.0889,-3.0897,-3.0927,-3.0939,-3.0796,-3.0795,-3.0795,-3.0794,0,-3.0856,-3.0872,-3.0899,-3.0894,-3.0899,-3.0927,-3.0896,-3.0905,-3.0881,-3.0864,-3.0894,-3.0882,-3.0888,-3.0895,-3.0872,-3.0932,-3.0918,-3.0886,-3.084,-3.0915,-3.0943,-3.0954,-3.0802,-3.08,-3.0799,-3.0798,0,0,-3.099,-3.0964,-3.0974,-3.0972,-3.0957,-3.097,-3.0995,-3.1,-3.1009,-3.1006,-3.1027,-3.1045,-3.1015,-3.1016,-3.0992,-3.1015,-3.1085,-3.098,-3.0979,-3.1001,-3.1151,-3.1177,-3.119,-3.1064,-3.1066,-3.1067,-3.1152,0,-3.1074,-3.1116,-3.1084,-3.1132,-3.1147,-3.11,-3.1122,-3.1116,-3.1101,-3.1112,-3.1095,-3.1108,-3.1068,-3.1068,-3.1088,-3.1072,-3.1115,-3.1065,-3.1084,-3.1086,-3.1089,-3.1204,-3.1231,-3.1312,-3.1163,-3.1165,-3.1166,0,-3.1178,-3.118,-3.1229,-3.1211,-3.1216,-3.1237,-3.1239,-3.125,-3.1242,-3.1229,-3.123,-3.12,-3.1224,-3.1178,-3.1212,-3.1179,-3.1185,-3.1178,-3.118,-3.1182,-3.1132,-3.1211,-3.1337,-3.135,-3.1182,-3.1181,-3.118,0,-3.1273,-3.1287,-3.1318,-3.1317,-3.1297,-3.1312,-3.1305,-3.1294,-3.1299,-3.1301,-3.1304,-3.1309,-3.1312,-3.1316,-3.1289,-3.1257,-3.1327,-3.1278,-3.1318,-3.1319,-3.1336,-3.1336,-3.1466,-3.1337,-3.1337,-3.1337,-3.1337,0,-3.1371,-3.1404,-3.136,-3.138,-3.1415,-3.1378,-3.1414,-3.1401,-3.1392,-3.1409,-3.1368,-3.1385,-3.1346,-3.1359,-3.1337,-3.1369,-3.1371,-3.1362,-3.1356,-3.1367,-3.1368,-3.1371,-3.1366,-3.134,-3.1339,-3.1339,-3.1338,0,-3.1484,-3.1456,-3.1487,-3.1465,-3.146,-3.1487,-3.1468,-3.1486,-3.1467,-3.1489,-3.1492,-3.1463,-3.1476,-3.1448,-3.1458,-3.1443,-3.1489,-3.1473,-3.1492,-3.1488,-3.153,-3.1527,-3.1669,-3.1686,-3.1544,-3.1546,-3.1547,0,-3.1549,-3.1573,-3.1553,-3.1561,-3.1555,-3.1569,-3.1573,-3.1538,-3.1544,-3.1537,-3.1556,-3.1565,-3.1571,-3.1594,-3.1575,-3.1582,-3.1567,-3.1616,-3.1568,-3.1578,-3.157,-3.1569,-3.1572,-3.1627,-3.1629,-3.163,-3.1631,0,-3.1669,-3.1654,-3.1662,-3.1665,-3.1671,-3.1672,-3.167,-3.1679,-3.1641,-3.1651,-3.1663,-3.1668,-3.1677,-3.1688,-3.169,-3.1683,-3.1652,-3.1646,-3.1656,-3.1668,-3.1678,-3.1675,-3.152,-3.1644,-3.1642,-3.1641,-3.1641,-3.164,-3.1761,-3.178,-3.1769,-3.1779,-3.1774,-3.1773,-3.1788,-3.1771,-3.1781,-3.1785,-3.1763,-3.1781,-3.1772,-3.1772,-3.1768,-3.1782,-3.176,-3.1774,-3.1778,-3.1783,-3.179,-3.1675,-3.1782,-3.1782,-3.1781,-3.1781,-3.1781,0,-3.188,-3.1871,-3.188,-3.1878,-3.1886,-3.1854,-3.185,-3.186,-3.1875,-3.187,-3.1876,-3.1891,-3.19,-3.1881,-3.1888,-3.1903,-3.1889,-3.1906,-3.1906,-3.1905,-3.1809,-3.18,-3.1917,-3.1917,-3.1917,-3.1917,-3.1917,-3.1917,-3.1943,-3.1974,-3.1958,-3.1985,-3.1975,-3.1992,-3.1992,-3.1991,-3.1987,-3.2005,-3.2012,-3.1999,-3.1988,-3.1994,-3.2002,-3.1996,-3.2001,-3.2024,-3.2014,-3.1925,-3.1911,-3.1899,-3.1891,-3.2025,-3.2025,-3.2108,-3.2109,-3.211]},{"header":{"parameterUnit":"m.s-1","parameterCategory":1,"la1":30.2991,"la2":30.254,"lo1":-89.0895,"lo2":-89.0444,"dy":0.0017,"dx":0.0017,"nx":28,"ny":28,"refTime":"2025-01-14T09:00:00:Z","depth":0,"parameterNumber":3,"parameterNumberName":"V-component_of_WINDS"},"data":[0,0,0,0,0,0,0,0,0,0,0,0,0,0,0,0,0,0,0,0,0,0,0,0,0,0,0,0,0,0,0,0,0,0,0,0,0,0,0,0,0,0,0,0,0,0,0,0,0,0,0,0,0,0,0,0,0,0,-3.4368,-3.4368,0,-3.4392,-3.4392,-3.4393,-3.4353,-3.4351,-3.435,-3.4349,-3.4371,-3.4373,-3.4375,0,0,0,0,0,0,0,0,0,0,0,0,0,-3.4284,-3.4285,-3.4368,-3.4368,-3.4368,-3.4392,-3.4392,-3.4393,-3.4353,-3.4351,-3.435,-3.4348,-3.437,-3.4373,-3.4375,0,0,0,0,0,0,0,0,0,0,0,0,0,-3.4315,-3.4286,-3.4367,-3.4351,-3.435,-3.4392,-3.4392,-3.4393,-3.4353,-3.4351,-3.4349,-3.4347,-3.437,-3.4372,-3.4375,-3.4433,0,0,-3.4384,-3.4385,0,0,0,0,0,0,0,0,-3.4313,-3.4318,-3.4353,-3.4353,-3.4351,-3.4367,-3.4371,-3.4406,-3.4354,-3.4352,-3.4349,-3.4346,-3.4371,-3.4374,-3.4383,-3.4434,-3.4435,-3.4384,-3.4386,-3.4387,-3.4388,0,0,0,0,0,0,0,-3.4311,-3.4317,-3.4377,-3.4354,-3.4353,-3.4342,-3.4344,-3.4377,-3.4373,-3.4352,-3.4349,-3.4353,-3.437,-3.438,-3.4383,-3.4435,-3.4384,-3.4386,-3.4388,-3.4389,-3.4536,-3.4538,0,0,0,0,0,0,-3.4311,-3.4315,-3.4376,-3.4378,-3.4327,-3.4345,-3.4348,-3.4364,-3.4372,-3.4372,-3.4354,-3.4351,-3.4376,-3.438,-3.4384,-3.4453,-3.4387,-3.4389,-3.4391,-3.4534,-3.4536,-3.4539,0,0,0,0,0,0,-3.431,-3.4317,-3.4375,-3.4346,-3.4353,-3.4349,-3.4368,-3.4366,-3.4376,-3.4374,-3.4373,-3.4366,-3.4375,-3.438,-3.4421,-3.4453,-3.4391,-3.4393,-3.4531,-3.4534,-3.4537,-3.4591,0,0,0,0,0,0,-3.4308,-3.4317,-3.434,-3.4347,-3.4354,-3.4414,-3.437,-3.4368,-3.4381,-3.4376,-3.4384,-3.4384,-3.4374,-3.4417,-3.4424,-3.4456,-3.4395,-3.4528,-3.4532,-3.4536,-3.4587,-3.4596,-3.4604,0,0,0,0,0,-3.4305,-3.4353,-3.4341,-3.4349,-3.4383,-3.4416,-3.442,-3.4408,-3.4384,-3.4406,-3.4405,-3.4383,-3.4448,-3.4422,-3.4429,-3.4462,-3.4526,-3.4531,-3.4536,-3.4583,-3.4594,-3.4604,0,0,0,0,0,0,-3.4349,-3.4354,-3.434,-3.4393,-3.4404,-3.4409,-3.4437,-3.4421,-3.4439,-3.4434,-3.4417,-3.4419,-3.4465,-3.4467,-3.4438,-3.4519,-3.4483,-3.449,-3.4516,-3.4527,-3.4535,-3.4534,-3.4398,0,0,0,0,0,-3.4365,-3.4392,-3.4394,-3.444,-3.4447,-3.4441,-3.4455,-3.4445,-3.4456,-3.446,-3.4462,-3.4473,-3.4495,-3.4511,-3.4531,-3.4586,-3.4587,-3.4612,-3.4621,-3.4628,-3.4634,-3.4664,-3.4675,-3.4555,-3.4555,-3.4555,0,0,-3.4398,-3.4404,-3.4422,-3.4449,-3.4457,-3.4485,-3.4445,-3.4476,-3.4497,-3.4464,-3.4505,-3.4506,-3.4517,-3.4566,-3.4587,-3.4569,-3.4667,-3.4634,-3.464,-3.4642,-3.467,-3.4681,-3.4692,-3.4558,-3.4558,-3.4557,0,0,-3.4473,-3.448,-3.4519,-3.4528,-3.4541,-3.4536,-3.4546,-3.4553,-3.4553,-3.4593,-3.457,-3.4593,-3.4632,-3.4641,-3.4651,-3.4729,-3.471,-3.4736,-3.4782,-3.4811,-3.482,-3.4829,-3.4857,-3.4868,-3.4742,-3.4742,-3.4742,0,-3.4512,-3.4555,-3.4541,-3.4575,-3.4587,-3.456,-3.46,-3.4608,-3.4626,-3.4636,-3.4615,-3.4664,-3.4669,-3.472,-3.4739,-3.4747,-3.4758,-3.4736,-3.482,-3.4828,-3.4836,-3.4863,-3.4874,-3.4745,-3.4745,-3.4745,-3.4744,0,-3.4603,-3.4632,-3.4662,-3.4682,-3.4698,-3.4734,-3.4726,-3.4743,-3.4731,-3.4729,-3.477,-3.4775,-3.4797,-3.4808,-3.4796,-3.4857,-3.4846,-3.4823,-3.4787,-3.4851,-3.4876,-3.4886,-3.475,-3.4749,-3.4748,-3.4747,0,0,-3.4707,-3.4719,-3.4731,-3.474,-3.4751,-3.4773,-3.4808,-3.483,-3.4846,-3.4858,-3.4887,-3.4921,-3.49,-3.4911,-3.49,-3.4925,-3.4988,-3.49,-3.49,-3.4917,-3.5056,-3.5074,-3.5087,-3.4975,-3.4977,-3.4978,-3.5055,0,-3.4783,-3.4844,-3.4833,-3.4892,-3.492,-3.4893,-3.4923,-3.4933,-3.4932,-3.4954,-3.4951,-3.4976,-3.4946,-3.4953,-3.4977,-3.4975,-3.5016,-3.4969,-3.5001,-3.5003,-3.5001,-3.51,-3.5119,-3.5192,-3.5065,-3.5067,-3.5068,0,-3.4879,-3.4898,-3.496,-3.4968,-3.4979,-3.5007,-3.5026,-3.5047,-3.5058,-3.5055,-3.5067,-3.5051,-3.5085,-3.5047,-3.5094,-3.5062,-3.5074,-3.5075,-3.5078,-3.5082,-3.5041,-3.5107,-3.5214,-3.5226,-3.5083,-3.5082,-3.5081,0,-3.4951,-3.4991,-3.5034,-3.5042,-3.5052,-3.5072,-3.5076,-3.5085,-3.5099,-3.5115,-3.5124,-3.5144,-3.5155,-3.517,-3.516,-3.5133,-3.5208,-3.5169,-3.5206,-3.5207,-3.5225,-3.5224,-3.5337,-3.523,-3.523,-3.523,-3.5229,0,-3.5038,-3.5077,-3.5066,-3.5093,-3.5136,-3.5122,-3.5165,-3.5166,-3.5174,-3.52,-3.5177,-3.5202,-3.5186,-3.5209,-3.52,-3.524,-3.5245,-3.5243,-3.5241,-3.5246,-3.5247,-3.5255,-3.525,-3.5233,-3.5232,-3.5231,-3.5231,0,-3.5126,-3.512,-3.5165,-3.5171,-3.5173,-3.5205,-3.5209,-3.5233,-3.523,-3.5263,-3.5269,-3.5264,-3.529,-3.528,-3.5307,-3.5302,-3.5353,-3.5343,-3.535,-3.5348,-3.5387,-3.5384,-3.551,-3.5526,-3.5408,-3.5409,-3.541,0,-3.5182,-3.5212,-3.5222,-3.5238,-3.5245,-3.5271,-3.5285,-3.5272,-3.5288,-3.5302,-3.5325,-3.5349,-3.5367,-3.5409,-3.5407,-3.5428,-3.5419,-3.5462,-3.5422,-3.5427,-3.5421,-3.542,-3.5424,-3.547,-3.5472,-3.5473,-3.5474,0,-3.5284,-3.5279,-3.5302,-3.5324,-3.5342,-3.5358,-3.5372,-3.5386,-3.5373,-3.5392,-3.5419,-3.5433,-3.5461,-3.5486,-3.5504,-3.5508,-3.5489,-3.5486,-3.5496,-3.5503,-3.5506,-3.5506,-3.5374,-3.5484,-3.5483,-3.5482,-3.5481,-3.5481,-3.5358,-3.5384,-3.5395,-3.5421,-3.543,-3.5444,-3.5467,-3.5467,-3.5489,-3.5512,-3.5502,-3.5533,-3.5542,-3.5565,-3.5572,-3.5595,-3.5578,-3.5592,-3.5596,-3.56,-3.5606,-3.5501,-3.5598,-3.5598,-3.5597,-3.5597,-3.5597,0,-3.546,-3.5465,-3.5489,-3.551,-3.553,-3.5511,-3.5525,-3.5543,-3.5571,-3.5582,-3.5601,-3.5631,-3.5655,-3.5654,-3.5676,-3.5694,-3.5686,-3.5701,-3.57,-3.5701,-3.5619,-3.5609,-3.5707,-3.5707,-3.5707,-3.5707,-3.5707,-3.5707,-3.5515,-3.5558,-3.5555,-3.5602,-3.5607,-3.5638,-3.5648,-3.566,-3.5668,-3.5704,-3.5724,-3.5724,-3.573,-3.5751,-3.5771,-3.577,-3.578,-3.5798,-3.5794,-3.5718,-3.5707,-3.5696,-3.5687,-3.58,-3.58,-3.5874,-3.5875,-3.5875]}]]